Regional Weather Roundup
Issued by NWS

Home | Current Version | Previous Version | Graphics & Text | Print | Product List | Glossary On
Versions: 1 2 3 4 5 6 7 8 9 10 11 12 13 14 15 16 17 18 19 20 21 22 23 24 25 26 27 28 29 30 31 32 33 34 35 36 37 38 39 40 41 42 43 44 45 46 47 48 49 50
000
ASUS43 KMPX 260810
RWRMN
WEATHER ROUNDUP FOR MINNESOTA
NATIONAL WEATHER SERVICE TWIN CITIES/CHANHASSEN MN
300 AM CDT FRI AUG 26 2016


NOTE: "FAIR" INDICATES FEW OR NO CLOUDS BELOW 12,000 FEET WITH NO
SIGNIFICANT WEATHER AND/OR OBSTRUCTIONS TO VISIBILITY. N/A MEANS
CURRENT SKY AND/OR WEATHER CONDITIONS ARE NOT AVAILABLE.

MNZ060>063-068>070-260900-
   Twin Cities Metro

CITY           SKY/WX    TMP DP  RH WIND       PRES   REMARKS
TWIN CITIES    FAIR      58  53  84 CALM      30.14S
CRYSTAL        FAIR      58  52  80 W3        30.13S
BLAINE         FAIR      59  57  94 CALM      30.14S
LAKEVILLE      FAIR      55  55 100 CALM      30.15S
EDEN PRAIRIE   FAIR      56  52  86 SW3       30.13F
LAKEVILLE      FAIR      55  55 100 CALM      30.15S
SOUTH ST PAUL  FAIR      58  54  86 W3        30.14S
LAKE ELMO      FAIR      55  54  94 W3        30.15S
$$
MNZ001>005-007-008-013>017-022>024-027-028-260900-
   Northwest Minnesota

CITY           SKY/WX    TMP DP  RH WIND       PRES   REMARKS
BEMIDJI        FAIR      51  49  95 CALM      30.11F
HALLOCK        FAIR      48  46  93 SE7       30.06S
ROSEAU         FAIR      48  43  81 S5        30.07S
WARROAD        FAIR      48  46  93 SW6       30.08R
THIEF RVR FALL FAIR      50  47  89 S6        30.09S
CROOKSTON      FAIR      50  48  93 CALM      30.08F
FOSSTON        FAIR      48  46  93 S5        30.10F
DETROIT LAKES  FAIR      55  52  88 SW3       30.13F
MOORHEAD       FAIR      52  48  87 S5        30.11F
PARK RAPIDS    CLOUDY    53  50  89 CALM      30.12F
MAHNOMEN       FAIR      51  49  93 S8        30.10F
$$
MNZ006-009>011-018-025>026-260900-
   North Central Minnesota

CITY           SKY/WX    TMP DP  RH WIND       PRES   REMARKS
BAUDETTE       FAIR      49  47  93 S3        30.07S
FLAG ISLAND    FAIR      61  48  63 CALM      30.05S
INTL FALLS     FAIR      43  41  93 CALM      30.08S FOG
WASKISH        MOCLDY    50  48  93 S3        30.09S
BIG FORK       FAIR      52  50  93 CALM      30.11R
LONGVILLE      FAIR      48  48 100 CALM      30.11F
GRAND RAPIDS   MOCLDY    55  51  86 CALM      30.14R
CRANE LAKE     FAIR      45  45 100 CALM      30.11R
ORR            FAIR      54  50  87 CALM      30.08R
COOK           CLOUDY    55  54  94 CALM      30.10S
WALKER         FAIR      47  47  98 CALM      30.11F
$$
MNZ012-019>021-037-260900-
   Northeast Minnesota

CITY           SKY/WX    TMP DP  RH WIND       PRES   REMARKS
DULUTH         CLOUDY    58  54  86 NW7       30.09S
ELY            FAIR      52  52 100 CALM      30.08S
HIBBING        CLOUDY    55  53  93 W3        30.10S
EVELETH        CLOUDY    58  54  88 W6        30.10F
DULUTH HARBOR  MOCLDY    61  55  82 SW6       30.09S
TWO HARBORS    MOCLDY    61  55  82 NW3       30.06S
SILVER BAY     FAIR      57  55  94 NW3       30.05R
GRAND MARAIS     N/A     58  53  84 SW5       30.02R
G MARAIS ARPRT FAIR      52  48  87 NW3       30.06S
$$
MNZ029>031-032-039>041-046>048-054>057-064-260900-
   West Central Minnesota

CITY           SKY/WX    TMP DP  RH WIND       PRES   REMARKS
FERGUS FALLS   FAIR      54  54 100 CALM      30.15S
WHEATON        CLOUDY    57  55  94 SW5       30.16S
MORRIS         FAIR      52  52 100 CALM      30.14S
ALEXANDRIA     FAIR      54  52  93 W6        30.16S
ELBOW LAKE     CLOUDY    51  51 100 S3        30.15S
WADENA         CLOUDY    54  52  94 SW5       30.13F
GLENWOOD       FAIR      55  54  94 W6        30.16R
APPLETON       FAIR      52  50  93 CALM      30.14F
BENSON         FOG       48  46  93 CALM      30.15S VSB 1/4
ORTONVILLE     FAIR      54  48  82 CALM      30.15S
MADISON        FAIR      50  48  93 SW3       30.16S
WILLMAR        FAIR      54  52  94 CALM      30.16F
$$
MNZ033>034-036-042>043-049>051-058-059-260900-
   Central Minnesota

CITY           SKY/WX    TMP DP  RH WIND       PRES   REMARKS
ST CLOUD       FAIR      54  54 100 CALM      30.13F
SAUK CENTRE    FAIR      52  52  99 CALM      30.16S
PAYNESVILLE    FAIR      52  52 100 CALM      30.16S
AITKIN         MOCLDY    55  52  88 CALM      30.10F
PINE RIVER     FAIR      48  48 100 CALM      30.15F
BRAINERD       FAIR      51  51 100 SE3       30.13F
STAPLES        CLOUDY    54  52  94 W3        30.13F
LONG PRAIRIE   FAIR      50  50 100 CALM      30.15S
LITTLE FALLS   FAIR      50  50 100 CALM      30.14S FOG
LITCHFIELD     FAIR      57  55  94 W3        30.16S
BUFFALO        FAIR      57  54  88 CALM      30.15F
MAPLE LAKE     FAIR      57  55  93 W3        30.15F
HUTCHINSON     FAIR      52  52 100 W3        30.17R
$$
MNZ037-044-045-052-053-260900-
   East Central Minnesota

CITY           SKY/WX    TMP DP  RH WIND       PRES   REMARKS
PRINCETON      FAIR      54  52  94 CALM      30.14F
MORA           FAIR      54  50  87 CALM      30.14F
CAMBRIDGE      FAIR      57  52  82 CALM      30.12F
RUSH CITY      MOCLDY    55  53  93 CALM      30.13S
MOOSE LAKE     FAIR      54  50  87 W3        30.11R
HINCKLEY       FAIR      54  54 100 CALM      30.12S
CLOQUET        CLOUDY    55  52  88 W7        30.11R
MCGREGOR       FAIR      54  52  94 W3        30.12S
$$
MNZ071>073-080-081-089-090-097-098-260900-
   Southwest Minnesota

CITY           SKY/WX    TMP DP  RH WIND       PRES   REMARKS
MONTEVIDEO     FAIR      54  50  87 W6        30.17F
GRANITE FALLS  FAIR      52  51  95 W5        30.17F
CANBY          FAIR      52  50  92 CALM      30.18S
MARSHALL       FAIR      52  50  93 W3        30.17F
REDWOOD FALLS  FAIR      54  51  90 W3        30.15F
OLIVIA         FAIR      52  50  93 CALM      30.15F
PIPESTONE      FAIR      54  52  94 SE1       30.17F
WINDOM         FAIR      52  50  93 CALM      30.17S
WORTHINGTON    FAIR      53  52  96 CALM      30.18F
JACKSON        FAIR      54  52  94 CALM      30.18S
TRACY          FAIR      55  53  92 SW5       30.17S
SLAYTON        FAIR      50  50 100 CALM      30.18F
$$
MNZ065>067-074>077-082>085-091>093-260900-
   South Central Minnesota

CITY           SKY/WX    TMP DP  RH WIND       PRES   REMARKS
MANKATO        FAIR      57  52  82 CALM      30.15F
NEW ULM          N/A     52  52 100 CALM      30.16S
FAIRMONT       FAIR      54  52  93 CALM      30.17F
GLENCOE        FAIR      55  54  98 CALM      30.15S
FARIBAULT      FAIR      55  54  94 CALM      30.16S
OWATONNA       FAIR      54  52  94 SW3       30.16S
WASECA         FAIR      52  50  93 CALM      30.18S FOG
ALBERT LEA     FAIR      55  55 100 CALM      30.17S
$$
MNZ078>079-086>088-094>096-260900-
   Southeast Minnesota

CITY           SKY/WX    TMP DP  RH WIND       PRES   REMARKS
ROCHESTER      FAIR      56  54  93 W5        30.16R
RED WING       FAIR      55  54  94 CALM      30.13S
STANTON        FAIR      55  52  88 CALM      30.14S
DODGE CENTER   FAIR      54  52  94 W5        30.16S
WINONA         FAIR      59  55  88 NW3       30.14R
AUSTIN         FAIR      57  54  88 CALM      30.16S
PRESTON        FAIR      56  53  90 NW6       30.16S
$$
ABBREVIATIONS USED IN REMARKS
   TC - TEMPERATURES IN CELSIUS
  WCI - WIND CHILL INDEX
   HX - HEAT INDEX
  VSB - VISIBILITY
$$




USA.gov is the U.S. government's official web portal to all federal, state and local government web resources and services.